TimeEST,TemperatureF,Dew PointF,Humidity,Sea Level PressureIn,VisibilityMPH,Wind Direction,Wind SpeedMPH,Gust SpeedMPH,PrecipitationIn,Events,Conditions,WindDirDegrees,DateUTC
12:54 AM,41.0,36.0,82,30.09,10.0,Calm,Calm,-,N/A,,Clear,0,2012-12-09 05:54:00
1:23 AM,41.0,35.6,81,30.07,10.0,North,3.5,-,N/A,,Mostly Cloudy,10,2012-12-09 06:23:00
1:54 AM,39.9,35.1,83,30.09,10.0,North,4.6,-,N/A,,Scattered Clouds,10,2012-12-09 06:54:00
2:54 AM,37.0,34.0,89,30.12,10.0,North,3.5,-,N/A,,Clear,350,2012-12-09 07:54:00
3:54 AM,36.0,33.1,89,30.13,10.0,North,6.9,-,N/A,,Clear,350,2012-12-09 08:54:00
4:54 AM,36.0,30.9,82,30.16,10.0,NNE,5.8,-,N/A,,Clear,30,2012-12-09 09:54:00
5:54 AM,35.1,32.0,89,30.18,10.0,NE,6.9,-,N/A,,Overcast,50,2012-12-09 10:54:00
6:54 AM,34.0,30.9,89,30.18,10.0,NE,6.9,-,N/A,,Mostly Cloudy,50,2012-12-09 11:54:00
7:54 AM,34.0,30.9,89,30.19,10.0,East,3.5,-,N/A,,Mostly Cloudy,90,2012-12-09 12:54:00
8:54 AM,34.0,30.9,89,30.20,10.0,ENE,8.1,-,N/A,,Overcast,70,2012-12-09 13:54:00
9:54 AM,36.0,32.0,86,30.21,10.0,ENE,10.4,-,N/A,,Overcast,60,2012-12-09 14:54:00
10:54 AM,36.0,32.0,86,30.20,10.0,ENE,5.8,-,0.00,Rain,Light Rain,70,2012-12-09 15:54:00
11:43 AM,35.6,32.0,87,30.14,10.0,ENE,5.8,-,0.00,Rain,Light Rain,70,2012-12-09 16:43:00
11:54 AM,36.0,33.1,89,30.17,10.0,ENE,8.1,-,0.00,Rain,Light Rain,60,2012-12-09 16:54:00
12:54 PM,36.0,33.1,89,30.16,5.0,NE,6.9,-,0.00,Rain,Light Rain,40,2012-12-09 17:54:00
1:18 PM,35.6,33.8,93,30.11,10.0,ENE,8.1,-,0.00,,Overcast,70,2012-12-09 18:18:00
1:54 PM,35.1,34.0,96,30.13,10.0,ENE,9.2,-,0.01,,Overcast,60,2012-12-09 18:54:00
2:54 PM,36.0,34.0,93,30.11,10.0,ENE,8.1,-,N/A,,Overcast,60,2012-12-09 19:54:00
3:54 PM,36.0,34.0,93,30.10,10.0,ENE,5.8,-,N/A,,Overcast,60,2012-12-09 20:54:00
4:54 PM,37.0,35.1,93,30.08,10.0,East,8.1,-,N/A,,Overcast,80,2012-12-09 21:54:00
5:54 PM,37.0,35.1,93,30.06,8.0,NE,4.6,-,0.00,Rain,Light Rain,40,2012-12-09 22:54:00
6:26 PM,35.6,35.6,100,30.00,1.8,NNE,5.8,-,0.05,Rain,Light Rain,20,2012-12-09 23:26:00
6:39 PM,35.6,35.6,100,30.01,3.0,NE,5.8,-,0.05,Rain,Light Rain,40,2012-12-09 23:39:00
6:52 PM,35.6,35.6,100,30.00,1.8,NNE,5.8,-,0.05,Rain,Light Rain,30,2012-12-09 23:52:00
6:54 PM,36.0,36.0,100,30.04,1.2,NNE,5.8,-,0.05,Rain,Light Rain,30,2012-12-09 23:54:00
7:08 PM,37.4,35.6,93,29.99,3.0,ENE,5.8,-,0.00,,Overcast,60,2012-12-10 00:08:00
7:54 PM,37.0,36.0,96,30.03,2.0,Calm,Calm,-,0.04,Rain,Light Rain,0,2012-12-10 00:54:00
8:15 PM,37.4,37.4,100,29.98,5.0,Variable,3.5,-,0.02,Rain,Light Rain,0,2012-12-10 01:15:00
8:54 PM,39.0,37.9,96,29.99,10.0,East,3.5,-,0.02,,Overcast,90,2012-12-10 01:54:00
9:54 PM,39.0,37.9,96,29.96,10.0,Calm,Calm,-,0.00,Rain,Light Rain,0,2012-12-10 02:54:00
10:54 PM,41.0,39.9,96,29.92,7.0,Calm,Calm,-,0.03,Rain,Light Rain,0,2012-12-10 03:54:00
11:54 PM,39.9,39.0,97,29.90,6.0,Calm,Calm,-,0.02,Rain,Light Rain,0,2012-12-10 04:54:00